Regional Weather Roundup
Issued by NWS Upton, NY

Current Version | Previous Version | Graphics & Text | Print | Product List | Glossary Off
Versions: 1 2 3 4 5 6 7 8 9 10 11 12 13 14 15 16 17 18 19 20 21 22 23 24 25 26 27 28 29 30 31 32 33 34 35 36 37 38 39 40 41 42 43 44 45 46 47 48 49

000
ASUS41 KOKX 040508
RWROKX

REGIONAL WEATHER ROUNDUP
NATIONAL WEATHER SERVICE NEW YORK NY
100 AM EDT MON MAY 04 2015

NOTE: "FAIR" INDICATES FEW OR NO CLOUDS BELOW 12,000 FEET WITH NO
SIGNIFICANT WEATHER AND/OR OBSTRUCTIONS TO VISIBILITY.

NYZ071-072-176-178-NJZ106-104-040600-
NEW YORK CITY METRO AREA


CITY           SKY/WX    TMP DP  RH WIND       PRES   REMARKS
CENTRAL PARK   CLEAR     60  47  61 CALM      30.19R
LAGUARDIA APRT CLEAR     58  47  66 S5        30.16R
KENNEDY INTL   CLEAR     52  48  86 S3        30.18R
NEWARK/LIBERTY CLEAR     62  40  44 S3        30.16R
BRNX BOT. GARD   N/A     55  46  71 E1        30.18R
TETERBORO      CLEAR     60  41  49 CALM      30.15R
$$

NYZ177-179-078>081-040600-
LONG ISLAND NEW YORK

CITY           SKY/WX    TMP DP  RH WIND       PRES   REMARKS
FARMINGDALE    CLEAR     52  48  86 S3        30.18R
ISLIP          CLEAR     52  48  86 SW7       30.16S
SHIRLEY        CLEAR     52  48  86 SW7       30.18S
WESTHAMPTON    CLEAR     45  44  97 CALM      30.19R
MONTAUK POINT    N/A     50  46  86 CALM      30.21R
$$

NYZ052-065-067-040600-
HUDSON VALLEY

CITY           SKY/WX    TMP DP  RH WIND       PRES   REMARKS
WHITE PLAINS   CLEAR     52  45  77 CALM      30.16R
NEWBURGH       CLEAR     55  45  67 VRB8      30.15R
MONTGOMERY     CLEAR     51  43  74 CALM      30.14R
POUGHKEEPSIE   PTCLDY    54  44  69 CALM      30.13R
ALBANY         PTCLDY    63  39  41 S6        30.12R
$$

NJZ001-105-106-008-010-013-015-019>022-104-040600-
NEW JERSEY

CITY           SKY/WX    TMP DP  RH WIND       PRES   REMARKS
NEWARK/LIBERTY CLEAR     62  40  44 S3        30.16R
TETERBORO      CLEAR     60  41  49 CALM      30.15R
CALDWELL       CLEAR     55  43  63 CALM      30.16R
MORRISTOWN     CLEAR     52  45  76 CALM      30.16R
SOMERVILLE     CLEAR     51  42  71 CALM      30.14R
SUSSEX         CLEAR     51  43  74 CALM      30.16R
ANDOVER          N/A     53  46  77 CALM      30.15R
TRENTON        CLEAR     61  38  42 SW3       30.16R
MILLVILLE      CLEAR     49  46  90 CALM      30.17R
ATLANTIC CITY  CLEAR     54  49  83 SW3       30.17S
WRIGHTSTOWN    CLEAR     53  47  81 S3        30.14S
TOMS RIVER     CLEAR     52  46  82 SW3       30.18R
BELMAR         CLEAR     57  43  58 SW6       30.17R
$$

PAZ047>061-062-071-040600-
EASTERN PENNSYLVANIA

CITY           SKY/WX    TMP DP  RH WIND       PRES   REMARKS
PHILADELPHIA   CLEAR     62  48  60 SW3       30.17R
ALLENTOWN      CLEAR     55  41  59 CALM      30.15R
SCRANTON       PTCLDY    60  35  39 E6        30.14R
$$

CTZ002-004>006-009-010-012-RIZ004-006-007-MAZ004-011-015-040600-
SOUTHERN NEW ENGLAND
 IN CT

CITY           SKY/WX    TMP DP  RH WIND       PRES   REMARKS
BRADLEY INTL   PTCLDY    55  44  66 S6        30.15R
HARTFORD       PTCLDY    52 N/A N/A S3        30.16R
DANBURY        CLEAR     50  41  71 CALM      30.17R
WTRBRY/OXFORD  CLEAR     50  43  76 SE3       30.19R
BRIDGEPORT     CLEAR     53  47  79 CALM      30.17R
MERIDEN        CLEAR     48  43  82 CALM      30.17R
NEW HAVEN      CLEAR     48  44  86 CALM      30.18R
CHESTER        FAIR      48  45  87 CALM      30.18S
GROTON         CLEAR     48  44  86 S3        30.19R
WILLIMANTIC    CLEAR     50  42  74 CALM      30.18R

 IN RI

CITY           SKY/WX    TMP DP  RH WIND       PRES   REMARKS
PROVIDENCE     PTCLDY    48  44  86 S7        30.18S
BLOCK ISLAND   CLEAR     48  43  81 SW12      30.19S
WESTERLY       CLEAR     48  45  89 S3        30.19S

 IN MA

CITY           SKY/WX    TMP DP  RH WIND       PRES   REMARKS
BOSTON         PTCLDY    51  42  71 SW9       30.16R
WORCESTER      PTCLDY    53  41  63 SW14      30.15R
WESTFIELD      CLEAR     54  43  66 S5        30.15R
PROVINCETOWN   CLEAR     48  45  87 S12       30.18S
NANTUCKET      MOCLDY    47  44  90 S7        30.20S
$$

ANZ330-335-338-340-345-350-353-355-040600-
COASTAL MARINE OBSERVATIONS


STATION/POSITION TIME  SKY/WX   TEMP    WIND        PRES    VSBY  WAVE
                                AIR SEA DIR/SP/G                  HT/PER
                 (UTC)          (F)     (DEG/KT/KT) (MB)    (MI)  (FT/S)
NY HARB ENTRANCE 0450            52 51  200/ 10/ 12 1021.2          4/12
4S FIRE IS       0403               49                N/A           4/ 8
20S FIRE ISLAND  0450            50 47  200/  8/  8 1021.8          3/ 9
GREAT SOUTH BAY  0400            53 58  230/  6/  6   N/A
23SW MTP         0450            50 46  210/ 10/ 10 1022.1          4/ 8
HUDSON CANYON    NOT AVBL
EXECUTION ROCKS  NOT AVBL
WESTERN LI SOUND NOT AVBL
CENTRAL LI SOUND NOT AVBL
EASTERN LI SOUND 0400            47     140/  6/  6   N/A
ROBBINS REEF     0412            60     170/  4/  5 1019.9
$$


>>>>>>>>>>>>>>>>>>>>>>>>>>>> KEY <<<<<<<<<<<<<<<<<<<<<<<<<<<
>                                                          <
>     SKY/WX - SKY CONDITION/PRESENT WEATHER               <
>     TMP    - TEMPERATURE IN FAHRENHEIT                   <
>     DP     - DEWPOINT IN FAHRENHEIT                      <
>     RH     - RELATIVE HUMIDITY IN PERCENT                <
>     WIND   - DIRECTION AND SPEED IN MPH                  <
>     PRES   - MEAN SEA LEVEL PRESSURE IN INCHES OF HG     <
>     WCI    - WIND CHILL INDEX                            <
>     VSB    - VISIBILITY IN MILES                         <
>     HX     - HEAT INDEX                                  <
>     TC     - TEMPERATURE IN CELSIUS                      <
>     VRB    - VARIABLE WIND DIRECTION                     <
>                                                          <
>>>>>>>>>>>>>>>>>>>>>>>>>>>> KEY <<<<<<<<<<<<<<<<<<<<<<<<<<<




USA.gov is the U.S. government's official web portal to all federal, state and local government web resources and services.